パロマー彗星

C/2013 P3 ( Palomar )

English version
Home page
Updated on November 13, 2016

---------------------------------------------------------------------

・ プロフィール

発見日 2013年8月9日
発見光度 18.9等
発見者 Palomar Transient Factory

・ 写真集

・ 軌道要素

Epoch 2014 Dec. 9.0 TT = JDT 2457000.5
T 2014 Nov. 23.82881 TT                                 MPCW
q   8.6465488            (2000.0)            P               Q
z  -0.0001408      Peri.  177.18360     +0.99782233     +0.04584240
 +/-0.0000008      Node   177.27541     -0.05998860     +0.33180710
e   1.0012178      Incl.   93.91034     +0.02742202     -0.94223273
From 461 observations 2013 Aug. 8-2016 Oct. 20, mean residual 0".5.

・ 光度変化

        m1 = 4.0 + 5 logΔ + 10.0 log r

---------------------------------------------------------------------

軌道要素はM.P.E.C. 2016-U66に掲載されたものです。
光度グラフはComet for Windowsで作成したものです。

---------------------------------------------------------------------

Copyright(C) Seiichi Yoshida (comet@aerith.net). All rights reserved.